Zurück zum Katalog

SCOUT G-1 DEB

AktivPO
NORAD 19559·DEBRIS·🇺🇸 United States

Gestartet Aug 25, 1988 von Vandenberg Space Force Base

Loading…

Nächste Überflüge (nächste 24 Stunden)

TLE

AktuellSource: Space-Track

Epoche: Sep 14, 2026, 08:07 UTC

1 19559U 88074F   26257.33820696  .00000099  00000-0  14417-3 0  9993
2 19559  89.3865  33.2922 0097016  44.8807 343.9690 13.45627123866250

Verfolge SCOUT G-1 DEB in Echtzeit mit AllMySat

Download on the App Store